Preview of NWS' New Version of Forecast
This preview is not operational and should not be used for support decisions.

Regional Weather Roundup (RWR)

Issued by National Weather Service (NWS)

                            
000
ASUS46 KPQR 230210
RWROR 

OREGON REGIONAL WEATHER ROUNDUP
NATIONAL WEATHER SERVICE PORTLAND OR
700 PM PDT SAT JUN 22 2019

NOTE: "FAIR" INDICATES FEW OR NO CLOUDS BELOW 12,000 FEET WITH
NO SIGNIFICANT WEATHER AND/OR OBSTRUCTIONS TO VISIBILITY.

ORZ001>013-230300-
NORTHWEST OREGON

  
CITY           SKY/WX    TMP DP  RH WIND       PRES   REMARKS
ASTORIA        CLOUDY    57  54  89 W6        30.25F FOG              
TILLAMOOK      CLOUDY    63  52  67 W14       30.26F                  
NEWPORT        SUNNY     59  52  77 N14G20    30.28F                  
PORTLAND       MOSUNNY   71  51  49 NW10G17   30.19S                  
VANCOUVER WA   MOSUNNY   69  50  50 NW8       30.18F                  
SCAPPOOSE      SUNNY     67  51  56 NW10G17   30.19S                  
HILLSBORO      MOSUNNY   68  51  54 NW14      30.19S                  
AURORA         CLOUDY    72  49  44 NE8       30.18F                  
MCMINNVILLE    PTSUNNY   72  52  49 N7        30.17S                  
SALEM          MOSUNNY   73  50  44 NW12G18   30.16F                  
CORVALLIS      SUNNY     71  52  50 NW15      30.18S                  
EUGENE         MOSUNNY   76  51  41 N9        30.16F                  
$$

ORZ021-028-230300-
SOUTHWEST OREGON

  
CITY           SKY/WX    TMP DP  RH WIND       PRES   REMARKS
NORTH BEND     SUNNY     60  51  72 N23G29    30.24F                  
BROOKINGS      SUNNY     75  51  43 NW14      30.04S                  
ROSEBURG       SUNNY     80  45  28 N10       30.12F                  
SEXTON SUMMIT  SUNNY     65  39  38 VRB5      30.20S                  
GRANTS PASS    FAIR      81  37  21 N9G16     30.13S                  
MEDFORD        SUNNY     81  37  20 NW13      30.08R                  
$$

ORZ014>016-041-230300-
COLUMBIA GORGE

  
CITY           SKY/WX    TMP DP  RH WIND       PRES   REMARKS
TROUTDALE      CLOUDY    70  50  49 NW3       30.18F                  
HOOD RIVER     MOSUNNY   70  46  43 SW6       30.12R                  
THE DALLES     MOSUNNY   74  45  35 W20G31    30.04F                  
$$

ORZ029>031-041-044-049-050-061>064-502-503-505>511-230300-
EASTERN OREGON

  
CITY           SKY/WX    TMP DP  RH WIND       PRES   REMARKS
MADRAS           N/A    N/A N/A N/A MISG        N/A                   
REDMOND        SUNNY     74  38  27 NW17      30.10S                  
BEND           SUNNY     73  32  21 NW15G21   30.11S                  
PRINEVILLE     SUNNY     72  37  28 N14G20    30.10S                  
KLAMATH FALLS  MOSUNNY   75  39  27 NW12      30.13S                  
LAKEVIEW       MOSUNNY   73  31  21 N5        30.15S                  
HERMISTON      MOSUNNY   81  45  28 W17       29.95F                  
PENDLETON      MOSUNNY   77  41  27 W18G26    29.99S                  
JOHN DAY       MOSUNNY   75  41  29 NW6       30.08S                  
MEACHAM        PTSUNNY   67  43  41 VRB3      30.10S                  
LA GRANDE      CLOUDY    72  46  39 N3        30.05S                  
BAKER CITY     PTSUNNY   71  51  49 W7        30.07S                  
BURNS          MOSUNNY   73  42  32 S9        30.10F                  
ROME             N/A     74  28  18 CALM      30.09F                  
ONTARIO        MOSUNNY   75  44  33 S5        30.03F                  
$$